Terminal Aerodrome Forecast
Issued by NWS

Home | Current Version | Previous Version | Text Only | Print | Product List | Glossary On
Versions: 1 2 3 4 5 6 7 8 9 10 11 12 13
000
FTUS43 KDTX 051128
TAFPTK
TAF
KPTK 051128Z 0512/0612 34010KT 5SM BR SCT200
     FM051300 36010KT P6SM SCT100 BKN200
     FM051700 01014G20KT P6SM BKN045
     FM052300 35006KT P6SM FEW060=

USA.gov is the U.S. government's official web portal to all federal, state and local government web resources and services.